Regional Weather Roundup
Issued by NWS San Angelo, TX

Home | Current Version | Previous Version | Text Only | Print | Product List | Glossary On
Versions: 1 2 3 4 5 6 7 8 9 10 11 12 13 14 15 16 17 18 19 20 21 22 23 24 25 26 27 28 29 30 31 32 33 34 35 36 37 38 39 40 41 42 43 44 45 46 47 48 49 50
000
ASUS44 KSJT 062010
RWRSJT
WEST CENTRAL TEXAS REGIONAL WEATHER ROUNDUP
NATIONAL WEATHER SERVICE SAN ANGELO TX
300 PM CDT MON JUL 06 2015

NOTE: "FAIR" INDICATES FEW OR NO CLOUDS BELOW 12,000 FEET WITH NO
SIGNIFICANT WEATHER AND/OR OBSTRUCTIONS TO VISIBILITY.

TXZ049-054-064>066-071>073-076>078-098-099-113-114-127-128-139-140-
154-155-168>170-062100
...LOCATIONS ACROSS WEST CENTRAL TEXAS...

CITY           SKY/WX    TMP DP  RH WIND       PRES   REMARKS
SAN ANGELO     PTSUNNY   93  68  43 S17G23    29.95F
ABILENE        PTSUNNY   92  69  47 S21       29.95F
DYESS AFB      PTSUNNY   92  72  51 S18G31    29.93F
JUNCTION       SUNNY     91  64  40 S22G32    29.99F
SWEETWATER     MOSUNNY   90  70  50 S16       29.98F
BROWNWOOD      SUNNY     93  63  36 S15G23    29.97F
COLEMAN        CLEAR     92  66  41 S16G22    29.97F
SONORA         MOSUNNY   91  66  43 S15G23    30.03F
OZONA          FAIR      91  64  40 S16G22    30.00F
BRADY          SUNNY     91  61  35 NE15      29.98F
$$

TEXAS PANHANDLE/OKLAHOMA PANHANDLE

CITY           SKY/WX    TMP DP  RH WIND       PRES   REMARKS
AMARILLO       MOSUNNY   89  66  46 NE15      30.00F
BORGER         MOSUNNY   90  66  45 NE10      29.99F
CANADIAN       MOSUNNY   91  70  49 NW7       29.92F
DALHART        PTSUNNY   86  60  41 N26G35    30.09S
DUMAS          MOCLDY    86  62  43 NE20      30.04F
GUYMON         NOT AVBL
HEREFORD       LGT RAIN  88  67  49 MISG      29.98F
PAMPA          PTCLDY    87  65  48 NE9       29.99F
PERRYTON       MOSUNNY   87  64  46 NE15G22   29.99F
$$

SOUTHERN PANHANDLE/SOUTH PLAINS/ROLLING PLAINS

CITY           SKY/WX    TMP DP  RH WIND       PRES   REMARKS
LUBBOCK        MOSUNNY   95  65  37 S16       29.94F
SNYDER         MOSUNNY   92  71  50 S13       29.95F
CHILDRESS      MOSUNNY   95  70  44 S13G22    29.90F
SEMINOLE       PTCLDY    97  55  24 S8        29.95F
$$

PERMIAN BASIN

CITY           SKY/WX    TMP DP  RH WIND       PRES   REMARKS
MIDLAND        SUNNY     94  66  39 SE10      29.94F
ODESSA         MOSUNNY   95  60  31 MISG      29.95F
WINK           MOSUNNY  101  58  24 SW15G23   29.89F
$$

FAR WEST/SOUTHWEST MOUNTAINS/TRANS PECOS

CITY           SKY/WX    TMP DP  RH WIND       PRES   REMARKS
ALPINE         CLOUDY    87  57  35 SW9       30.13F
DRYDEN           N/A     94  69  44 VRB6      29.94F
EL PASO        MOSUNNY   92  55  28 W6G18     30.02F
FORT STOCKTON  TSTM      81  66  60 VRB6G23   30.03R
GUADALUPE PASS MOSUNNY   87  58  37 W14G26    30.14F
MARFA          MOSUNNY  N/A N/A N/A SW15      30.13F
PECOS          MOCLDY    95  63  34 SE20G28   29.91F
$$

DALLAS/FORT WORTH METROPLEX

CITY           SKY/WX    TMP DP  RH WIND       PRES   REMARKS
DFW AIRPORT    PTSUNNY   92  66  42 S24G32    29.96F
FTW MEACHAM    MOSUNNY   93  68  43 S17G32    29.95F
DAL-EXECUTIVE  MOSUNNY   89  67  47 S15G29    29.98F
GRAND PRAIRIE  SUNNY     91  66  43 S18G28      N/A
ADDISON        PTSUNNY   91  64  40 S22G33    29.98F
MESQUITE         N/A     90  68  48 S15G24      N/A
LANCASTER      PTCLDY    90  65  44 S20G28    30.00F
$$

NORTH CENTRAL TEXAS

CITY           SKY/WX    TMP DP  RH WIND       PRES   REMARKS
SHRMAN/DENISON PTCLDY    92  70  48 S23       29.98F
GAINESVILLE    PTSUNNY   90  68  48 S20G26    29.97F
BRIDGEPORT     MOCLDY    91  69  48 S13G21    29.97F
DENTON         PTSUNNY   91  69  48 S18G29    29.96F
WAXAHACHIE     PTCLDY    91  70  50 S14       30.00F
GRANBURY       CLOUDY    94  62  34 SE16G25   29.97F
$$

WESTERN NORTH TEXAS

CITY           SKY/WX    TMP DP  RH WIND       PRES   REMARKS
WICHITA FALLS  PTSUNNY   90  72  55 S15G23    29.91F
VERNON         PTCLDY    97  65  35 S17G23    29.90F
BRECKENRIDGE   MOCLDY    92  67  42 S16       29.95F
COMANCHE       SUNNY     92  64  38 S16G24    29.98F
$$

CENTRAL AND SOUTH CENTRAL TEXAS

CITY           SKY/WX    TMP DP  RH WIND       PRES   REMARKS
AUSTIN/BERGSTM PTSUNNY   92  71  50 S17G25    30.00F
WACO           MOSUNNY   93  67  42 S25       30.00F
HILLSBORO      PTCLDY    90  67  46 S20G26    30.00F
TEMPLE         MOSUNNY   90  68  48 SE21G29   30.00F
KILLEEN-GRAY   NOT AVBL
FORT HOOD      MOSUNNY   90  67  47 S22       30.00F
GEORGETOWN     MOSUNNY   91  68  46 S21G29    30.00F
LAGO VISTA     MOCLDY    89  67  48 S16G23    30.03F
SAN MARCOS     MOSUNNY   90  70  51 SE20      30.01F
NEW BRAUNFELS  MOSUNNY   92  72  51 S21       29.99F
RANDOLPH AFB   NOT AVBL
SAN ANTONIO    MOSUNNY   90  69  50 SE20G25   30.01F
STINSON        MOSUNNY   91  68  46 S14G26    29.98F
PLEASANTON     NOT AVBL
LA GRANGE      PTSUNNY   91  75  59 S10G20    30.00F
GIDDINGS       MOCLDY    88  71  57 S12G21    30.06F
$$

EAST TEXAS

CITY           SKY/WX    TMP DP  RH WIND       PRES   REMARKS
PARIS          PTSUNNY   88  72  58 S21       30.01F
CLARKSVILLE    NOT AVBL
TYLER          CLOUDY    90  71  53 S15G23    30.03F
LONGVIEW       PTSUNNY   92  72  51 S17G23    30.03F
PALESTINE      MOCLDY    91  68  46 S15G25    30.04F
NACOGDOCHES    PTSUNNY  N/A N/A N/A S15       30.04F
$$

TEXAS HILL COUNTRY AND EDWARDS PLATEAU

CITY           SKY/WX    TMP DP  RH WIND       PRES   REMARKS
LLANO          CLEAR     93  63  36 S15G23    30.01F
HORSESHOE BAY  FAIR      91  65  41 S13G24    30.01F
KERRVILLE      MOSUNNY   86  68  54 SE22G28   30.03F
FREDERICKSBRG  MOSUNNY   88  64  45 S14G22    30.02F
ROCKSPRINGS    PTCLDY    88  66  48 SE17G25   30.04F HAZE
HONDO          LGT RAIN  89  68  49 SE17G28   30.01F
UVALDE         CLEAR     89  68  49 SE15G23   29.97F
DEL RIO        SUNNY     93  69  45 SE17      29.92F
$$

SOUTHEAST TEXAS

CITY           SKY/WX    TMP DP  RH WIND       PRES   REMARKS
COLLEGE STN    PTSUNNY   92  69  47 S20G26    30.03F
CALDWELL       MOCLDY    90  73  58 SE18      30.05F
CROCKETT       CLOUDY    91  77  62 S9        30.07F
BRENHAM        PTSUNNY   92  71  50 S10G18    30.04F
HUNTSVILLE     CLOUDY    91  71  51 S13G20    30.04F
CONROE         PTSUNNY   91  68  46 S16       30.05F
HOUSTON BUSH   PTSUNNY   91  72  53 S17       30.05F
HOUSTON HOBBY  CLOUDY    89  72  56 S14G20    30.05F
PERLAND        PTSUNNY   91  72  53 SE10      30.08F
WHARTON        MOCLDY    88  74  62 SE14      30.05F
$$

THE UPPER TEXAS COAST

CITY           SKY/WX    TMP DP  RH WIND       PRES   REMARKS
ORANGE         CLEAR     89  71  53 S9        30.10F
PORT ARTHUR    MOSUNNY   91  76  61 S13       30.08F
GALVESTON      MOSUNNY   89  78  70 S16       30.08F
ANGLETON       LGT RAIN  90  75  61 S13       30.06F
BAY CITY       MOCLDY    90  76  61 S15G21    30.05F
$$

TEXAS COASTAL BEND, RIO GRANDE PLAINS DEEP SOUTH TEXAS

CITY           SKY/WX    TMP DP  RH WIND       PRES   REMARKS
VICTORIA       PTSUNNY   89  75  63 S22       30.03F
BEEVILLE       FAIR      90  72  54 S20G26    30.00F
ROCKPORT       LGT RAIN  87  76  69 SE18      30.02F
PORT ARANSAS   LGT RAIN  86  79  78 SE13      30.03F
PORT LAVACA    MOCLDY    87  76  69 SE13G23   30.04F
CORPUS CHRISTI CLOUDY    90  74  59 SE21G30   30.01F
KINGSVILLE NAS CLOUDY    91  79  67 SE21G32   29.99F
COTULLA        LGT RAIN  94  69  44 SE18G28   29.95F
LAREDO         SUNNY     98  68  37 SE18G29   29.94F
BROWNSVILLE    MOSUNNY   90  75  61 SE25G31   30.01F
PORT ISABEL    PTSUNNY   88  78  72 SE24G31   30.00F HAZE
HEBBRONVILLE     N/A     91  68  46 SE18G24   29.98F
MCALLEN        MOSUNNY   95  73  48 SE23G32   29.97F
WESLACO        PTSUNNY   91  71  52 SE20G28   29.98F
FALFURRIAS     PTCLDY    93  73  52 SE16G24   29.97F
EDINBURG       MOCLDY    94  71  47 SE17G24   29.98F
$$



USA.gov is the U.S. government's official web portal to all federal, state and local government web resources and services.